Date String (YYYY-MM-DD hh:mm:ss) UTC,Instrument flags,absolute air pressure of the measurement (hPa),sample flow rate (lpm),inlet stack bypass flow (lpm),air temperature of the measurement (°C),ambient temperature measured by the external sensor (°C),aerosol sample conditioner tube jacket temperature (°C),OPC LED temperature (°C),internal box temperature (°C),relative humidity of the measurement (%),span deviation,mass concentration of particles derived from Lorenz-Mie calculation of OPC scattering (μg/m³),mass concentration of particles derived from Lorenz-Mie calculation of OPC scattering (μg/m³),mass concentration of particles derived from Lorenz-Mie calculation of OPC scattering (μg/m³)
DateTimeUTC,F1_M11,P_M11,Q1_M11,Q2_M11,T1_M11,T2_M11,T3_M11,T4_M11,T5_M11,U1_M11,ZSPAN_M11,X2_M11,X0_M11,X1_M11
2024-03-05 04:00:00,SystemResetWarning,0824.2,5.00,000.00,021.2,020.4,000.0,029.7,023.0,16.0,0000.0,0003.26,0008.29,0002.14
2024-03-05 04:01:00,SystemResetWarning,0824.3,5.00,000.00,021.2,020.4,000.0,029.7,023.0,16.1,0000.0,0003.29,0008.47,0002.15
2024-03-05 04:02:00,SystemResetWarning,0824.4,5.00,000.00,021.2,020.5,000.0,029.7,023.0,16.2,0000.0,0003.36,0008.81,0002.17
2024-03-05 04:03:00,SystemResetWarning,0824.3,5.00,000.00,021.2,020.5,000.0,029.7,023.0,16.3,0000.0,0003.41,0009.03,0002.18
2024-03-05 04:04:00,SystemResetWarning,0824.4,5.00,000.00,021.2,020.4,000.0,029.7,023.0,16.2,0000.0,0003.42,0010.01,0002.19
2024-03-05 04:05:00,SystemResetWarning,0824.4,5.00,000.00,021.2,020.4,000.0,029.7,023.0,16.1,0000.0,0003.41,0010.70,0002.19
2024-03-05 04:06:00,SystemResetWarning,0824.4,5.01,000.00,021.2,020.4,000.0,029.7,023.0,16.1,0000.0,0003.42,0010.48,0002.19
2024-03-05 04:07:00,SystemResetWarning,0824.4,5.01,000.00,021.2,020.4,000.0,029.6,023.0,16.1,0000.0,0003.40,0009.95,0002.19
2024-03-05 04:08:00,SystemResetWarning,0824.4,4.99,000.00,021.2,020.4,000.0,029.6,023.0,16.1,0000.0,0003.37,0010.14,0002.18
2024-03-05 04:09:00,SystemResetWarning,0824.4,5.00,000.00,021.2,020.4,000.0,029.6,023.0,16.1,0000.0,0003.37,0010.19,0002.19
2024-03-05 04:10:00,SystemResetWarning,0824.4,4.99,000.00,021.2,020.4,000.0,029.6,023.0,16.3,0000.0,0003.36,0010.13,0002.19
2024-03-05 04:11:00,SystemResetWarning,0824.4,5.01,000.00,021.2,020.4,000.0,029.6,023.0,16.2,0000.0,0003.37,0010.09,0002.21
2024-03-05 04:12:00,SystemResetWarning,0824.3,5.00,000.00,021.2,020.4,000.0,029.6,023.0,16.2,0000.0,0003.34,0010.04,0002.23
2024-03-05 04:13:00,SystemResetWarning,0824.4,5.00,000.00,021.2,020.4,000.0,029.6,023.0,16.2,0000.0,0003.28,0009.70,0002.22
2024-03-05 04:14:00,SystemResetWarning,0824.4,5.01,000.00,021.2,020.4,000.0,029.6,023.0,16.2,0000.0,0003.21,0009.73,0002.22
2024-03-05 04:15:00,SystemResetWarning,0824.3,5.00,000.00,021.2,020.4,000.0,029.6,023.0,16.2,0000.0,0003.19,0009.27,0002.20
2024-03-05 04:16:00,SystemResetWarning,0824.3,5.00,000.00,021.2,020.4,000.0,029.6,023.0,16.2,0000.0,0003.18,0008.62,0002.19
2024-03-05 04:17:00,SystemResetWarning,0824.5,5.00,000.00,021.2,020.4,000.0,029.6,023.0,16.2,0000.0,0003.16,0008.88,0002.18
2024-03-05 04:18:00,SystemResetWarning,0824.6,4.99,000.00,021.2,020.4,000.0,029.6,023.0,16.2,0000.0,0003.14,0009.59,0002.18
2024-03-05 04:19:00,SystemResetWarning,0824.6,4.99,000.00,021.2,020.4,000.0,029.6,023.0,16.4,0000.0,0003.15,0009.00,0002.18
2024-03-05 04:20:00,SystemResetWarning,0824.6,5.00,000.00,021.2,020.4,000.0,029.6,023.0,16.4,0000.0,0003.14,0009.03,0002.18
2024-03-05 04:21:00,SystemResetWarning,0824.5,5.02,000.00,021.2,020.4,000.0,029.6,023.0,16.4,0000.0,0003.11,0009.28,0002.19
2024-03-05 04:22:00,SystemResetWarning,0824.4,5.00,000.00,021.2,020.4,000.0,029.6,023.0,16.3,0000.0,0003.04,0009.85,0002.17
2024-03-05 04:23:00,SystemResetWarning,0824.4,5.00,000.00,021.2,020.4,000.0,029.6,022.9,16.2,0000.0,0003.01,0010.34,0002.16
2024-03-05 04:24:00,SystemResetWarning,0824.4,5.00,000.00,021.2,020.4,000.0,029.6,023.0,16.2,0000.0,0003.05,0011.34,0002.16
2024-03-05 04:25:00,SystemResetWarning,0824.5,5.00,000.00,021.2,020.4,000.0,029.6,023.0,16.2,0000.0,0003.13,0011.38,0002.17
2024-03-05 04:26:00,SystemResetWarning,0824.5,5.00,000.00,021.2,020.4,000.0,029.6,023.0,16.2,0000.0,0003.15,0010.93,0002.17
2024-03-05 04:27:00,SystemResetWarning,0824.7,5.00,000.00,021.1,020.4,000.0,029.6,022.9,16.1,0000.0,0003.17,0010.81,0002.18
2024-03-05 04:28:00,SystemResetWarning,0824.7,5.01,000.00,021.1,020.4,000.0,029.6,022.9,16.1,0000.0,0003.20,0010.69,0002.21
2024-03-05 04:29:00,SystemResetWarning,0824.7,5.00,000.00,021.1,020.4,000.0,029.6,022.9,16.1,0000.0,0003.17,0010.78,0002.20
2024-03-05 04:30:00,SystemResetWarning,0824.8,5.00,000.00,021.1,020.4,000.0,029.6,022.9,16.1,0000.0,0003.19,0011.38,0002.21
2024-03-05 04:31:00,SystemResetWarning,0824.8,5.00,000.00,021.1,020.3,000.0,029.6,022.9,16.2,0000.0,0003.21,0011.60,0002.20
2024-03-05 04:32:00,SystemResetWarning,0824.8,5.00,000.00,021.1,020.3,000.0,029.6,022.9,16.2,0000.0,0003.21,0012.18,0002.18
2024-03-05 04:33:00,SystemResetWarning,0824.7,5.00,000.00,021.1,020.3,000.0,029.6,022.8,16.1,0000.0,0003.24,0011.78,0002.16
2024-03-05 04:34:00,SystemResetWarning,0824.7,5.00,000.00,021.1,020.3,000.0,029.5,022.8,16.1,0000.0,0003.23,0011.11,0002.13
2024-03-05 04:35:00,SystemResetWarning,0824.8,5.00,000.00,021.1,020.3,000.0,029.5,022.8,16.1,0000.0,0003.21,0010.32,0002.10
2024-03-05 04:36:00,SystemResetWarning,0824.9,5.00,000.00,021.1,020.3,000.0,029.5,022.8,16.1,0000.0,0003.13,0009.83,0002.05
2024-03-05 04:37:00,SystemResetWarning,0824.9,5.00,000.00,021.1,020.2,000.0,029.5,022.8,16.1,0000.0,0003.05,0009.79,0002.03
2024-03-05 04:38:00,SystemResetWarning,0824.8,4.99,000.00,021.1,020.2,000.0,029.5,022.8,15.9,0000.0,0003.07,0009.99,0002.00
2024-03-05 04:39:00,SystemResetWarning,0824.7,5.01,000.00,021.0,020.2,000.0,029.5,022.8,15.8,0000.0,0003.00,0009.89,0001.95
2024-03-05 04:40:00,SystemResetWarning,0824.7,5.01,000.00,021.0,020.2,000.0,029.5,022.8,15.8,0000.0,0002.95,0009.10,0001.89
2024-03-05 04:41:00,SystemResetWarning,0824.7,5.00,000.00,021.0,020.2,000.0,029.5,022.8,15.9,0000.0,0002.88,0008.40,0001.82
2024-03-05 04:42:00,SystemResetWarning,0824.7,5.00,000.00,021.0,020.2,000.0,029.5,022.8,16.0,0000.0,0002.74,0008.42,0001.74
2024-03-05 04:43:00,SystemResetWarning,0824.6,5.00,000.00,021.0,020.2,000.0,029.5,022.7,16.0,0000.0,0002.65,0008.06,0001.65
2024-03-05 04:44:00,SystemResetWarning,0824.5,5.01,000.00,021.0,020.2,000.0,029.5,022.8,16.1,0000.0,0002.58,0007.78,0001.59
2024-03-05 04:45:00,SystemResetWarning,0824.6,4.99,000.00,021.0,020.2,000.0,029.5,022.8,16.1,0000.0,0002.51,0008.18,0001.54
2024-03-05 04:46:00,SystemResetWarning,0824.7,4.99,000.00,021.0,020.2,000.0,029.5,022.8,16.1,0000.0,0002.48,0008.22,0001.50
2024-03-05 04:47:00,SystemResetWarning,0824.7,5.00,000.00,021.0,020.2,000.0,029.4,022.8,16.1,0000.0,0002.51,0009.40,0001.48
2024-03-05 04:48:00,SystemResetWarning,0824.7,5.01,000.00,021.0,020.2,000.0,029.4,022.8,16.1,0000.0,0002.48,0010.04,0001.45
2024-03-05 04:49:00,SystemResetWarning,0824.7,5.01,000.00,021.0,020.2,000.0,029.4,022.8,16.0,0000.0,0002.48,0010.45,0001.45
2024-03-05 04:50:00,SystemResetWarning,0824.7,5.00,000.00,021.0,020.2,000.0,029.4,022.8,16.0,0000.0,0002.43,0010.62,0001.44
2024-03-05 04:51:00,SystemResetWarning,0824.7,5.00,000.00,021.0,020.1,000.0,029.4,022.7,16.0,0000.0,0002.45,0011.41,0001.47
2024-03-05 04:52:00,SystemResetWarning,0824.7,4.99,000.00,020.9,020.1,000.0,029.4,022.7,15.9,0000.0,0002.57,0011.79,0001.55
2024-03-05 04:53:00,SystemResetWarning,0824.8,5.00,000.00,020.9,020.1,000.0,029.4,022.7,16.0,0000.0,0002.62,0012.49,0001.63
2024-03-05 04:54:00,SystemResetWarning,0824.8,5.00,000.00,020.9,020.1,000.0,029.4,022.7,16.1,0000.0,0002.79,0012.64,0001.77
2024-03-05 04:55:00,SystemResetWarning,0824.8,5.00,000.00,020.9,020.1,000.0,029.4,022.7,16.2,0000.0,0002.95,0012.91,0001.92
2024-03-05 04:56:00,SystemResetWarning,0824.8,5.01,000.00,020.9,020.1,000.0,029.4,022.7,16.2,0000.0,0003.12,0012.63,0002.05
2024-03-05 04:57:00,SystemResetWarning,0824.9,5.00,000.00,020.9,020.1,000.0,029.4,022.6,16.2,0000.0,0003.20,0013.08,0002.16
2024-03-05 04:58:00,SystemResetWarning,0824.9,4.99,000.00,020.9,020.0,000.0,029.4,022.6,16.2,0000.0,0003.21,0012.51,0002.24
2024-03-05 04:59:00,SystemResetWarning,0824.9,4.99,000.00,020.9,020.0,000.0,029.4,022.6,16.4,0000.0,0003.21,0012.07,0002.29
